Regional Weather Roundup
Issued by NWS

Home | Current Version | Previous Version | Text Only | Print | Product List | Glossary Off
Versions: 1 2 3 4 5 6 7 8 9 10 11 12 13 14 15 16 17 18 19 20 21 22 23 24 25 26 27 28 29 30 31 32 33 34 35 36 37 38 39 40 41 42 43 44 45 46 47 48 49 50

000
ASUS43 KBIS 211159
RWRND

NORTH DAKOTA REGIONAL WEATHER ROUNDUP
NATIONAL WEATHER SERVICE BISMARCK ND
700 AM CDT TUE OCT 21 2014

NOTE: "FAIR" INDICATES FEW OR NO CLOUDS BELOW 12,000 FEET WITH NO
SIGNIFICANT WEATHER AND/OR OBSTRUCTIONS TO VISIBILITY.


NDZ001>003-009>011-017-211300-
NORTHWEST NORTH DAKOTA

CITY           SKY/WX    TMP DP  RH WIND       PRES   REMARKS
WILLISTON      CLEAR     44  38  79 CALM      29.76S
6HR MIN TEMP:  37; 6HR MAX TEMP:  57;

MINOT          CLEAR     48  35  60 E7        29.82F
$$

NDZ018>021-031>035-040>046-211300-
SOUTHWEST NORTH DAKOTA

CITY           SKY/WX    TMP DP  RH WIND       PRES   REMARKS
BISMARCK       CLEAR     50  36  58 SE7       29.85F
6HR MIN TEMP:  50; 6HR MAX TEMP:  55;

GARRISON         N/A     44  36  73 E8        29.82F
6HR MIN TEMP:  44; 6HR MAX TEMP:  51;

HETTINGER ARPT CLEAR     40  36  86 E5        29.80F
$$

NDZ004>008-012>016-024-026-027-054-211300-
NORTHEAST NORTH DAKOTA

CITY           SKY/WX    TMP DP  RH WIND       PRES   REMARKS
GRAND FORKS    CLEAR     38  36  92 SE9       30.03F
DEVILS LAKE    CLEAR     46  36  66 SE14      29.92F
$$

NDZ022-023-025-028>030-036>039-047>053-211300-
SOUTHEAST NORTH DAKOTA

CITY           SKY/WX    TMP DP  RH WIND       PRES   REMARKS
FARGO          CLEAR     44  37  76 SE14      30.04F
6HR MIN TEMP:  43; 6HR MAX TEMP:  46;

$$




USA.gov is the U.S. government's official web portal to all federal, state and local government web resources and services.